Location: Boiro
(42.6475°N, 8.8834°W)
Time: 17:34:42
(UTC+01:00)

Explorer 7 - Pass Details

Date: 08 December 2021
Orbit: 483 x 674 km, 50.3° (Epoch: 20 January)

Event Time Altitude Azimuth Distance (km) Brightness Sun altitude
Rises 08:06:20 0° 281° (WNW) 2,817 - -8.5°
Reaches altitude 10° 08:08:55 10° 293° (WNW) 1,880 - -8.0°
Exits shadow 08:08:58 10° 293° (WNW) 1,868 8.8 -8.0°
Maximum altitude 08:12:39 28° 354° (N) 1,042 8.0 -7.4°
Drops below altitude 10° 08:16:12 10° 55° (NE) 1,779 9.9 -6.8°
Sets 08:18:35 0° 67° (ENE) 2,637 11.0 -6.4°
